カタログに戻る

GONETS M 05

運用中通信PO
NORAD 39249·PAYLOAD·🇷🇺 Russia

打ち上げ Sep 11, 2013 から Plesetsk Cosmodrome

Loading…

次のパス (今後24時間)

TLE

最新Source: Space-Track

元期: Sep 14, 2026, 13:07 UTC

1 39249U 13048A   26257.54673971  .00000073  00000-0  45474-3 0  9994
2 39249  82.4785 287.6786 0016875  22.8143 337.3683 12.42894610589983

AllMySatでGONETS M 05をリアルタイム追跡

Download on the App Store